DTH2206 DAAG-DAOO

Flight info

Callsign DTH2206
Flight time 0h 37m
Altitude 30000
Route CHE1C DAHRA UA411 MOS DCT
Aircraft B738/M-SDE2E3FGHIRWXY/LB1

Departure

Time 2026-04-25 09:28
Airport Houari Boumediene Airport (DAAG)

Arrival

Time 2026-04-25 10:05
Airport Oran Es-Sénia (Ahmed Ben Bella) International Airport (DAOO)
Time Latitude Longitude Altitude Speed Heading
2026-04-25 09:14 36.69696 3.20546 62 ft 0 kts 17°
2026-04-25 09:19 36.69684 3.20541 63 ft 2 kts 18°
2026-04-25 09:20 36.69671 3.20535 67 ft 2 kts 18°
2026-04-25 09:20 36.69655 3.20529 64 ft 2 kts 19°
2026-04-25 09:20 36.69640 3.20522 68 ft 2 kts 21°
2026-04-25 09:20 36.69624 3.20514 62 ft 2 kts 26°
2026-04-25 09:21 36.69610 3.20503 62 ft 2 kts 47°
2026-04-25 09:21 36.69604 3.20487 67 ft 1 kts 92°
2026-04-25 09:21 36.69604 3.20483 67 ft 0 kts 95°
2026-04-25 09:23 36.69605 3.20504 62 ft 7 kts 88°
2026-04-25 09:23 36.69603 3.20593 65 ft 13 kts 91°
2026-04-25 09:23 36.69601 3.20712 69 ft 14 kts 91°
2026-04-25 09:24 36.69558 3.20807 69 ft 14 kts 159°
2026-04-25 09:24 36.69471 3.20844 64 ft 13 kts 161°
2026-04-25 09:24 36.69387 3.20879 64 ft 12 kts 161°
2026-04-25 09:24 36.69306 3.20913 68 ft 12 kts 161°
2026-04-25 09:25 36.69254 3.20935 68 ft 0 kts 162°
2026-04-25 09:26 36.69242 3.20940 69 ft 7 kts 162°
2026-04-25 09:26 36.69174 3.20967 77 ft 11 kts 162°
2026-04-25 09:26 36.69117 3.20936 80 ft 11 kts 269°
2026-04-25 09:26 36.69117 3.20912 83 ft 0 kts 271°
2026-04-25 09:27 36.69119 3.20856 82 ft 25 kts 271°
2026-04-25 09:27 36.69132 3.20319 70 ft 97 kts 272°
2026-04-25 09:27 36.69158 3.19214 74 ft 155 kts 272°
2026-04-25 09:28 36.69206 3.17764 483 ft 173 kts 272°
2026-04-25 09:28 36.69240 3.16245 1230 ft 175 kts 271°
2026-04-25 09:28 36.69295 3.14674 1842 ft 187 kts 278°
2026-04-25 09:28 36.69879 3.13151 2319 ft 209 kts 315°
2026-04-25 09:29 36.71134 3.12192 2841 ft 220 kts 341°
2026-04-25 09:29 36.72664 3.11902 3461 ft 220 kts 359°
2026-04-25 09:29 36.74242 3.11851 3910 ft 241 kts 358°
2026-04-25 09:29 36.76043 3.11748 4128 ft 271 kts 357°
2026-04-25 09:30 36.77946 3.11635 4954 ft 274 kts 356°
2026-04-25 09:30 36.79866 3.11527 5749 ft 279 kts 356°
2026-04-25 09:30 36.81818 3.11394 6548 ft 283 kts 351°
2026-04-25 09:30 36.83657 3.10561 7286 ft 284 kts 328°
2026-04-25 09:31 36.85336 3.09249 8062 ft 287 kts 325°
2026-04-25 09:31 36.86353 3.08193 8521 ft 289 kts 307°
2026-04-25 09:31 36.87205 3.05098 9513 ft 287 kts 266°
2026-04-25 09:31 36.86819 3.02658 10256 ft 288 kts 249°
2026-04-25 09:32 36.86103 3.00249 10579 ft 308 kts 246°
2026-04-25 09:32 36.85271 2.97689 10847 ft 327 kts 246°
2026-04-25 09:32 36.84397 2.95038 11458 ft 333 kts 246°
2026-04-25 09:32 36.83518 2.92350 12218 ft 335 kts 246°
2026-04-25 09:33 36.82644 2.89651 13019 ft 337 kts 246°
2026-04-25 09:33 36.82065 2.87849 13554 ft 339 kts 246°
2026-04-25 09:33 36.81187 2.85105 14286 ft 342 kts 246°
2026-04-25 09:33 36.80014 2.81421 15200 ft 348 kts 246°
2026-04-25 09:34 36.79119 2.78605 15914 ft 351 kts 246°
2026-04-25 09:34 36.78214 2.75756 16623 ft 355 kts 247°
2026-04-25 09:34 36.77301 2.72880 17311 ft 359 kts 246°
2026-04-25 09:34 36.76676 2.70915 17772 ft 362 kts 247°
2026-04-25 09:35 36.75742 2.67979 18435 ft 367 kts 247°
2026-04-25 09:35 36.74797 2.65008 19013 ft 371 kts 247°
2026-04-25 09:35 36.73839 2.62002 19598 ft 374 kts 246°
2026-04-25 09:35 36.72886 2.59014 20178 ft 378 kts 246°
2026-04-25 09:36 36.71909 2.55951 20761 ft 382 kts 246°
2026-04-25 09:36 36.70920 2.52860 21308 ft 386 kts 246°
2026-04-25 09:36 36.69921 2.49739 21859 ft 390 kts 246°
2026-04-25 09:36 36.68908 2.46579 22385 ft 394 kts 246°
2026-04-25 09:37 36.67885 2.43390 22921 ft 398 kts 246°
2026-04-25 09:37 36.66853 2.40175 23439 ft 402 kts 246°
2026-04-25 09:37 36.65808 2.36921 23910 ft 406 kts 246°
2026-04-25 09:37 36.64755 2.33646 24380 ft 409 kts 246°
2026-04-25 09:38 36.63695 2.30351 24838 ft 411 kts 246°
2026-04-25 09:38 36.62630 2.27042 25291 ft 413 kts 246°
2026-04-25 09:38 36.61553 2.23704 25721 ft 416 kts 246°
2026-04-25 09:38 36.60470 2.20352 26148 ft 419 kts 246°
2026-04-25 09:39 36.59367 2.16981 26566 ft 422 kts 245°
2026-04-25 09:39 36.58232 2.13603 26974 ft 425 kts 245°
2026-04-25 09:39 36.57078 2.10209 27388 ft 427 kts 245°
2026-04-25 09:40 36.54744 2.03362 28104 ft 434 kts 245°
2026-04-25 09:40 36.53556 1.99873 28082 ft 443 kts 245°
2026-04-25 09:40 36.51115 1.92698 28090 ft 458 kts 245°
2026-04-25 09:41 36.48601 1.85312 28087 ft 468 kts 245°
2026-04-25 09:41 36.46060 1.77859 28085 ft 469 kts 245°
2026-04-25 09:42 36.43512 1.70408 28081 ft 468 kts 245°
2026-04-25 09:42 36.40963 1.62976 28085 ft 467 kts 245°
2026-04-25 09:43 36.38439 1.55630 28093 ft 465 kts 245°
2026-04-25 09:43 36.35901 1.48256 28013 ft 464 kts 245°
2026-04-25 09:44 36.34659 1.44577 27738 ft 460 kts 245°
2026-04-25 09:44 36.33439 1.40929 27500 ft 457 kts 245°
2026-04-25 09:44 36.32224 1.37285 27243 ft 456 kts 245°
2026-04-25 09:44 36.31015 1.33662 26996 ft 453 kts 245°
2026-04-25 09:45 36.29810 1.30059 26742 ft 451 kts 245°
2026-04-25 09:45 36.28608 1.26479 26485 ft 449 kts 245°
2026-04-25 09:45 36.27409 1.22914 26225 ft 447 kts 245°
2026-04-25 09:45 36.26214 1.19371 25988 ft 445 kts 245°
2026-04-25 09:46 36.25023 1.15841 25737 ft 443 kts 245°
2026-04-25 09:46 36.23835 1.12329 25499 ft 441 kts 245°
2026-04-25 09:46 36.22651 1.08830 25242 ft 439 kts 245°
2026-04-25 09:46 36.21475 1.05359 24672 ft 435 kts 245°
2026-04-25 09:47 36.20314 1.01934 24116 ft 429 kts 245°
2026-04-25 09:47 36.19163 0.98542 23538 ft 425 kts 245°
2026-04-25 09:47 36.18021 0.95183 22877 ft 421 kts 245°
2026-04-25 09:47 36.16890 0.91860 22257 ft 417 kts 245°
2026-04-25 09:48 36.15773 0.88579 21687 ft 412 kts 245°
2026-04-25 09:48 36.14665 0.85332 21113 ft 407 kts 245°
2026-04-25 09:48 36.13584 0.82165 20566 ft 403 kts 245°
2026-04-25 09:48 36.12498 0.78988 20013 ft 400 kts 245°
2026-04-25 09:49 36.11419 0.75834 19469 ft 396 kts 245°
2026-04-25 09:49 36.10348 0.72706 18922 ft 394 kts 245°
2026-04-25 09:49 36.09282 0.69598 18376 ft 391 kts 245°
2026-04-25 09:49 36.08220 0.66505 17744 ft 390 kts 245°
2026-04-25 09:50 36.07165 0.63434 17164 ft 386 kts 245°
2026-04-25 09:50 36.06120 0.60393 16608 ft 383 kts 245°
2026-04-25 09:50 36.05081 0.57375 16061 ft 380 kts 245°
2026-04-25 09:50 36.04053 0.54390 15539 ft 377 kts 245°
2026-04-25 09:51 36.03029 0.51422 14999 ft 374 kts 245°
2026-04-25 09:51 36.02012 0.48475 14483 ft 372 kts 245°
2026-04-25 09:51 36.01000 0.45547 13952 ft 370 kts 245°
2026-04-25 09:51 35.99998 0.42651 13376 ft 368 kts 245°
2026-04-25 09:52 35.98989 0.39738 12817 ft 366 kts 245°
2026-04-25 09:52 35.97993 0.36864 12278 ft 363 kts 245°
2026-04-25 09:52 35.97004 0.34011 11756 ft 360 kts 245°
2026-04-25 09:52 35.96024 0.31189 11242 ft 357 kts 245°
2026-04-25 09:53 35.95051 0.28389 10854 ft 351 kts 245°
2026-04-25 09:53 35.94109 0.25677 10713 ft 338 kts 245°
2026-04-25 09:53 35.93197 0.23054 10541 ft 327 kts 245°
2026-04-25 09:53 35.92317 0.20525 10419 ft 316 kts 245°
2026-04-25 09:54 35.91464 0.18079 10279 ft 305 kts 245°
2026-04-25 09:54 35.90636 0.15708 10173 ft 296 kts 245°
2026-04-25 09:54 35.89828 0.13444 10021 ft 290 kts 241°
2026-04-25 09:54 35.88700 0.11414 9748 ft 284 kts 229°
2026-04-25 09:55 35.87442 0.09562 9489 ft 281 kts 228°
2026-04-25 09:55 35.86189 0.07718 9242 ft 281 kts 229°
2026-04-25 09:55 35.85027 0.05782 8979 ft 283 kts 239°
2026-04-25 09:55 35.84188 0.03587 8744 ft 284 kts 246°
2026-04-25 09:56 35.83456 0.01324 8482 ft 284 kts 247°
2026-04-25 09:56 35.82740 -0.00945 8225 ft 284 kts 247°
2026-04-25 09:56 35.82018 -0.03208 7965 ft 284 kts 247°
2026-04-25 09:56 35.81287 -0.05461 7707 ft 283 kts 246°
2026-04-25 09:57 35.80549 -0.07704 7451 ft 281 kts 246°
2026-04-25 09:57 35.79811 -0.09928 7203 ft 280 kts 246°
2026-04-25 09:57 35.79073 -0.12137 6951 ft 278 kts 246°
2026-04-25 09:57 35.78337 -0.14330 6702 ft 276 kts 246°
2026-04-25 09:58 35.77603 -0.16510 6450 ft 275 kts 246°
2026-04-25 09:58 35.76873 -0.18677 6198 ft 273 kts 246°
2026-04-25 09:58 35.76150 -0.20818 5939 ft 272 kts 246°
2026-04-25 09:58 35.75427 -0.22957 5681 ft 269 kts 246°
2026-04-25 09:59 35.74710 -0.25075 5431 ft 266 kts 246°
2026-04-25 09:59 35.74005 -0.27158 5212 ft 263 kts 246°
2026-04-25 09:59 35.73305 -0.29223 4973 ft 260 kts 246°
2026-04-25 09:59 35.72610 -0.31273 4675 ft 259 kts 246°
2026-04-25 10:00 35.71919 -0.33306 4432 ft 256 kts 246°
2026-04-25 10:00 35.71237 -0.35312 4190 ft 253 kts 246°
2026-04-25 10:00 35.70564 -0.37292 3965 ft 250 kts 246°
2026-04-25 10:00 35.69893 -0.39250 3736 ft 247 kts 246°
2026-04-25 10:01 35.69232 -0.41158 3612 ft 236 kts 246°
2026-04-25 10:01 35.68609 -0.42974 3407 ft 226 kts 246°
2026-04-25 10:01 35.68009 -0.44727 3122 ft 218 kts 246°
2026-04-25 10:01 35.67441 -0.46391 2841 ft 204 kts 246°
2026-04-25 10:02 35.66907 -0.47952 2561 ft 192 kts 246°
2026-04-25 10:02 35.66406 -0.49420 2339 ft 181 kts 246°
2026-04-25 10:02 35.65931 -0.50808 2090 ft 171 kts 246°
2026-04-25 10:02 35.65487 -0.52112 1891 ft 159 kts 246°
2026-04-25 10:03 35.65074 -0.53324 1694 ft 155 kts 246°
2026-04-25 10:03 35.64661 -0.54532 1474 ft 151 kts 247°
2026-04-25 10:03 35.64261 -0.55705 1266 ft 147 kts 246°
2026-04-25 10:03 35.63867 -0.56874 1082 ft 149 kts 246°
2026-04-25 10:04 35.63456 -0.58061 887 ft 156 kts 246°
2026-04-25 10:04 35.63033 -0.59300 660 ft 156 kts 247°
2026-04-25 10:04 35.62616 -0.60552 412 ft 159 kts 248°
2026-04-25 10:04 35.62202 -0.61780 295 ft 141 kts 248°
2026-04-25 10:05 35.61904 -0.62652 293 ft 81 kts 247°
2026-04-25 10:05 35.61750 -0.63106 291 ft 49 kts 247°
2026-04-25 10:05 35.61648 -0.63402 296 ft 28 kts 247°
2026-04-25 10:05 35.61532 -0.63483 296 ft 21 kts 165°
2026-04-25 10:06 35.61416 -0.63389 299 ft 20 kts 118°
2026-04-25 10:06 35.61415 -0.63227 295 ft 19 kts 68°
2026-04-25 10:06 35.61466 -0.63075 294 ft 19 kts 67°
2026-04-25 10:06 35.61515 -0.62929 295 ft 18 kts 68°
2026-04-25 10:07 35.61561 -0.62787 296 ft 18 kts 68°
2026-04-25 10:07 35.61610 -0.62652 294 ft 17 kts 66°
2026-04-25 10:07 35.61656 -0.62521 298 ft 16 kts 68°
2026-04-25 10:07 35.61699 -0.62395 300 ft 16 kts 67°
2026-04-25 10:08 35.61741 -0.62274 299 ft 15 kts 67°
2026-04-25 10:08 35.61786 -0.62140 301 ft 22 kts 67°
2026-04-25 10:08 35.61856 -0.61936 299 ft 26 kts 67°
2026-04-25 10:08 35.61923 -0.61739 300 ft 24 kts 67°
2026-04-25 10:09 35.61986 -0.61556 305 ft 23 kts 66°
2026-04-25 10:09 35.62047 -0.61380 304 ft 22 kts 68°
2026-04-25 10:09 35.62105 -0.61208 304 ft 21 kts 66°
2026-04-25 10:09 35.62152 -0.61073 303 ft 12 kts 72°
2026-04-25 10:10 35.62115 -0.60993 303 ft 12 kts 138°
2026-04-25 10:10 35.62110 -0.60902 304 ft 12 kts 68°
2026-04-25 10:10 35.62116 -0.60823 303 ft 8 kts 133°
2026-04-25 10:10 35.62084 -0.60803 303 ft 2 kts 150°
2026-04-25 10:11 35.62076 -0.60788 303 ft 2 kts 108°
2026-04-25 10:11 35.62084 -0.60776 302 ft 2 kts 25°
2026-04-25 10:11 35.62093 -0.60779 303 ft 0 kts 336°